Terug naar catalogus

STARLINK-11189

ActiefCommunicatieVLEO
NORAD 60188·PAYLOAD·🇺🇸 United States

Gelanceerd Jul 3, 2024 vanaf Cape Canaveral Space Force Station

Loading…

Volgende Passages (komende 24 uur)

TLE

VersSource: CelesTrak SupGP

Epoch: Sep 15, 2026, 02:47 UTC

1 60188C 24124F   26258.11645833  .00051310  00000+0  42257-3 0  2580
2 60188  53.1569 307.8179 0001244  76.5580 176.8357 15.69688694    11

Volg STARLINK-11189 in realtime met AllMySat

Download on the App Store